DW5072 Weather Reports


Display with metric or nautical units.
time (UTC)temp
F
wind
direction
speed
MPH
gust
MPH
rain 1hr
in
rain 24hr
in
rain mn
in
humidity
%
barometer
mb
20220705133059 81 167 2.0 0.0 0.00 0.00 0.00 43 1019.9
20220705131557 81 244 3.0 0.0 0.00 0.00 0.00 35 1019.9
20220705130156 81 236 2.0 0.0 0.00 0.00 0.00 39 1020.0
20220705124554 81 245 3.0 0.0 0.00 0.00 0.00 42 1019.9
20220705123055 80 257 3.0 0.0 0.00 0.00 0.00 43 1020.0
20220705121552 81 285 3.0 0.0 0.00 0.00 0.00 43 1020.3
20220705120152 80 267 4.0 0.0 0.00 0.00 0.00 46 1020.3
20220705114601 80 280 2.0 0.0 0.00 0.00 0.00 45 1020.3
20220705113052 79 257 3.0 0.0 0.00 0.00 0.00 50 1020.5
20220705111551 79 257 1.0 0.0 0.00 0.00 0.00 48 1020.5
20220705110149 78 244 3.0 0.0 0.00 0.00 0.00 48 1020.6
20220705104553 78 239 3.0 0.0 0.00 0.00 0.00 51 1020.7
20220705103101 78 252 3.0 0.0 0.00 0.00 0.00 51 1020.7
20220705101550 77 237 3.0 0.0 0.00 0.00 0.00 52 1020.8
20220705100012 76 226 1.0 0.0 0.00 0.00 0.00 57 1020.9
20220705094509 76 265 2.0 0.0 0.00 0.00 0.00 58 1020.9
20220705093053 75 254 2.0 0.0 0.00 0.00 0.00 61 1020.9
20220705091549 75 257 1.0 0.0 0.00 0.00 0.00 62 1021.0
20220705090145 73 126 1.0 0.0 0.00 0.00 0.00 63 1020.9
20220705084556 72 269 1.0 0.0 0.00 0.00 0.00 65 1021.0
20220705083057 71 245 1.0 0.0 0.00 0.00 0.00 69 1021.0
20220705081549 70 285 0.0 0.0 0.00 0.00 0.00 72 1021.1
20220705080143 68 257 0.0 0.0 0.00 0.00 0.00 74 1021.1
20220705074508 68 103 0.0 0.0 0.00 0.00 0.00 76 1021.1
20220705073006 67 200 1.0 0.0 0.00 0.00 0.00 78 1021.0
20220705071502 66 229 2.0 0.0 0.00 0.00 0.00 79 1021.0
20220705070048 66 237 1.0 0.0 0.00 0.00 0.00 80 1021.0
20220705064545 65 229 2.0 0.0 0.00 0.00 0.00 82 1020.9
20220705063056 64 273 1.0 0.0 0.00 0.00 0.00 86 1020.8
20220705061553 64 217 1.0 0.0 0.00 0.00 0.00 90 1020.9
20220705060051 62 161 0.0 0.0 0.00 0.00 0.00 93 1020.8
20220705054550 60 322 0.0 0.0 0.00 0.00 0.00 93 1020.7
20220705053051 60 322 0.0 0.0 0.00 0.00 0.00 92 1020.6
20220705051544 60 322 0.0 0.0 0.00 0.00 0.00 92 1020.7
20220705050042 59 322 0.0 0.0 0.00 0.00 0.00 92 1020.6
20220705044540 59 322 0.0 0.0 0.00 0.00 0.00 92 1020.4
20220705043037 60 322 0.0 0.0 0.00 0.00 0.00 91 1020.4
20220705041537 60 322 0.0 0.0 0.00 0.00 0.00 91 1020.2
20220705040032 60 322 0.0 0.0 0.00 0.00 0.00 91 1020.0
20220705034533 60 322 0.0 0.0 0.00 0.00 0.00 91 1020.0
20220705033029 60 322 0.0 0.0 0.00 0.00 0.00 90 1019.8
20220705031528 61 322 0.0 0.0 0.00 0.00 0.00 90 1019.8
20220705030025 61 322 0.0 0.0 0.00 0.00 0.00 90 1019.7
20220705024525 61 322 0.0 0.0 0.00 0.00 0.00 90 1019.6
20220705023023 62 322 0.0 0.0 0.00 0.00 0.00 90 1019.5
20220705021521 62 322 0.0 0.0 0.00 0.00 0.00 90 1019.5
20220705020021 62 322 0.0 0.0 0.00 0.00 0.00 90 1019.4
20220705014521 62 322 0.0 0.0 0.00 0.00 0.00 90 1019.3
20220705013019 62 322 0.0 0.0 0.00 0.00 0.00 91 1019.3
20220705011521 62 322 0.0 0.0 0.00 0.00 0.00 91 1019.3
20220705010018 62 322 0.0 0.0 0.00 0.00 0.00 91 1019.3
20220705004517 62 322 0.0 0.0 0.00 0.00 0.00 91 1019.3
20220705003016 62 322 0.0 0.0 0.00 0.00 0.00 90 1019.4
20220705001515 62 322 0.0 0.0 0.00 0.00 0.00 90 1019.4
20220705000017 62 322 0.0 0.0 0.00 0.00 0.00 90 1019.5
20220704234513 62 322 0.0 0.0 0.00 0.00 0.00 90 1019.3
20220704233014 62 322 0.0 0.0 0.00 0.00 0.00 90 1019.2
20220704231511 62 322 0.0 0.0 0.00 0.00 0.00 90 1019.2
20220704230010 63 322 0.0 0.0 0.00 0.00 0.00 90 1019.2
20220704224509 63 322 0.0 0.0 0.00 0.00 0.00 89 1019.1
20220704223007 63 322 0.0 0.0 0.00 0.00 0.00 89 1019.2
20220704221509 63 322 0.0 0.0 0.00 0.00 0.00 88 1019.2
20220704220009 64 322 0.0 0.0 0.00 0.00 0.00 88 1019.2
20220704214503 64 322 0.0 0.0 0.00 0.00 0.23 88 1019.2
20220704213002 65 322 0.0 0.0 0.00 0.00 0.23 87 1019.1
20220704211504 65 322 0.0 0.0 0.00 0.00 0.23 87 1019.1
20220704210001 66 322 0.0 0.0 0.00 0.00 0.23 86 1018.9
20220704204503 66 322 0.0 0.0 0.00 0.00 0.23 85 1018.5
20220704203101 67 322 0.0 0.0 0.00 0.00 0.23 84 1018.5
20220704201600 67 322 0.0 0.0 0.00 0.00 0.23 84 1018.5
20220704200059 68 322 0.0 0.0 0.00 0.00 0.23 83 1018.3
20220704194601 69 322 0.0 0.0 0.00 0.00 0.23 83 1018.1
20220704193108 69 322 0.0 0.0 0.00 0.00 0.23 83 1017.9
20220704191605 70 322 0.0 0.0 0.00 0.00 0.23 83 1017.7
20220704190058 70 322 0.0 0.0 0.00 0.00 0.23 83 1017.5
20220704184559 70 322 0.0 0.0 0.00 0.00 0.23 83 1017.5
20220704183057 70 322 0.0 0.0 0.00 0.00 0.23 81 1017.6
20220704181605 71 322 0.0 0.0 0.00 0.00 0.23 79 1017.7
20220704180059 71 322 0.0 0.0 0.00 0.00 0.23 76 1017.5
20220704174555 71 322 0.0 0.0 0.00 0.00 0.23 76 1017.6
20220704173059 71 322 0.0 0.0 0.00 0.00 0.23 75 1017.4
20220704171554 71 322 0.0 0.0 0.00 0.00 0.23 76 1017.5
20220704170059 71 322 0.0 0.0 0.00 0.00 0.23 78 1017.2
20220704164554 71 322 0.0 0.0 0.00 0.00 0.23 78 1017.2
20220704163102 71 259 0.0 0.0 0.00 0.00 0.23 79 1017.2
20220704161553 70 259 0.0 0.0 0.00 0.00 0.23 77 1017.4
20220704160022 70 259 0.0 0.0 0.00 0.00 0.23 77 1017.4
20220704154534 70 259 0.0 0.0 0.00 0.00 0.23 78 1017.2
20220704153055 70 259 0.0 0.0 0.00 0.00 0.23 79 1017.0
20220704151558 70 259 0.0 0.0 0.00 0.00 0.23 78 1017.1
20220704150154 70 259 0.0 0.0 0.00 0.00 0.23 76 1017.2
20220704144550 70 259 0.0 0.0 0.00 0.00 0.23 75 1017.3
20220704143057 70 259 0.0 0.0 0.00 0.00 0.23 73 1017.7
20220704141548 70 200 0.0 0.0 0.00 0.00 0.23 73 1017.4
20220704140148 71 199 0.0 0.0 0.00 0.00 0.23 72 1017.4
20220704134546 71 267 0.0 0.0 0.00 0.00 0.23 73 1017.3